CW4535 Weather Reports


Display with metric or nautical units.
time (UTC)temp
F
wind
direction
speed
MPH
gust
MPH
rain 1hr
in
rain 24hr
in
rain mn
in
humidity
%
barometer
mb
20260510105003 62 0 0.0 0.0 0.00 0.00 0.00 83 1012.6
20260510104003 63 0 0.0 0.0 0.00 0.00 0.00 83 1012.3
20260510103003 63 0 0.0 0.0 0.00 0.00 0.00 83 1012.6
20260510102003 63 0 0.0 0.0 0.00 0.00 0.00 82 1012.5
20260510101003 64 0 0.0 0.0 0.00 0.00 0.00 82 1012.3
20260510100003 64 0 0.0 0.0 0.00 0.00 0.00 81 1012.2
20260510095003 64 0 0.0 0.0 0.00 0.00 0.00 80 1012.0
20260510094003 64 0 0.0 0.0 0.00 0.00 0.00 80 1012.1
20260510093003 64 0 0.0 0.0 0.00 0.00 0.00 79 1012.3
20260510092003 65 0 0.0 0.0 0.00 0.00 0.00 78 1012.1
20260510091003 65 0 0.0 0.0 0.00 0.00 0.00 77 1011.6
20260510090003 65 0 0.0 0.0 0.00 0.00 0.00 76 1011.4
20260510085003 66 0 0.0 0.0 0.00 0.00 0.00 76 1011.2
20260510084003 66 0 0.0 0.0 0.00 0.00 0.00 74 1011.1
20260510083218 67 0 0.0 0.0 0.00 0.00 0.00 73 1010.9
20260510082003 67 0 0.0 0.0 0.00 0.00 0.00 72 1010.3
20260510081003 68 57 0.0 1.0 0.00 0.00 0.00 71 1010.1
20260510080004 68 60 0.0 4.0 0.00 0.00 0.00 71 1010.2
20260510075003 68 124 0.0 2.0 0.00 0.00 0.00 70 1010.2
20260510074003 68 151 1.0 10.0 0.00 0.00 0.00 70 1009.4
20260510073003 68 143 2.0 11.0 0.00 0.00 0.00 70 1008.4
20260510072003 68 154 2.0 10.0 0.00 0.00 0.00 70 1009.6
20260510071003 67 180 2.0 6.0 0.00 0.00 0.00 71 1010.7
20260510070004 67 175 1.0 9.0 0.00 0.00 0.00 74 1010.6
20260510065003 67 154 1.0 7.0 0.00 0.00 0.00 78 1010.7
20260510064003 67 138 0.0 5.0 0.00 0.00 0.00 79 1010.6
20260510063003 67 115 0.0 3.0 0.00 0.00 0.00 79 1011.9
20260510062003 67 0 0.0 0.0 0.00 0.00 0.00 79 1012.2
20260510061003 67 111 0.0 1.0 0.00 0.00 0.00 78 1012.4
20260510060004 67 0 0.0 0.0 0.00 0.00 0.00 77 1012.4
20260510055003 68 0 0.0 0.0 0.00 0.00 0.00 77 1012.7
20260510054003 68 0 0.0 0.0 0.00 0.00 0.00 76 1012.5
20260510053003 68 0 0.0 0.0 0.00 0.00 0.00 75 1012.9
20260510052003 68 0 0.0 0.0 0.00 0.00 0.00 75 1012.8
20260510051003 68 111 0.0 1.0 0.00 0.00 0.00 75 1012.9
20260510050004 68 111 0.0 2.0 0.00 0.00 0.00 76 1012.8
20260510045003 67 113 0.0 2.0 0.00 0.00 0.00 76 1012.5
20260510044003 67 0 0.0 0.0 0.00 0.00 0.00 77 1012.1
20260510043003 67 0 0.0 0.0 0.00 0.00 0.00 76 1011.7
20260510042003 67 0 0.0 0.0 0.00 0.00 0.00 77 1011.3
20260510041003 67 0 0.0 0.0 0.00 0.00 0.00 76 1011.0
20260510040004 68 0 0.0 0.0 0.00 0.00 0.00 75 1010.8
20260510035003 68 0 0.0 0.0 0.00 0.00 0.00 74 1010.7
20260510034003 68 0 0.0 0.0 0.00 0.00 0.00 73 1010.7
20260510033003 68 0 0.0 0.0 0.00 0.00 0.00 72 1010.8
20260510032217 68 0 0.0 0.0 0.00 0.00 0.00 72 1010.9
20260510031003 68 0 0.0 0.0 0.00 0.00 0.00 71 1010.9
20260510030003 68 0 0.0 0.0 0.00 0.00 0.00 70 1010.8
20260510025003 68 0 0.0 0.0 0.00 0.00 0.00 70 1010.7
20260510024003 69 0 0.0 0.0 0.00 0.00 0.00 69 1010.4
20260510023003 69 0 0.0 0.0 0.00 0.00 0.00 67 1009.9
20260510022003 69 0 0.0 0.0 0.00 0.00 0.00 65 1009.4
20260510021219 70 0 0.0 0.0 0.00 0.00 0.00 65 1009.1
20260510020220 71 0 0.0 0.0 0.00 0.00 0.00 63 1009.0
20260510015003 72 0 0.0 0.0 0.00 0.00 0.00 61 1008.7
20260510014003 72 0 0.0 0.0 0.00 0.00 0.00 59 1008.5
20260510013003 74 0 0.0 0.0 0.00 0.00 0.00 57 1008.3
20260510012003 75 0 0.0 0.0 0.00 0.00 0.00 55 1008.2
20260510011003 76 0 0.0 0.0 0.00 0.00 0.00 54 1008.1
20260510010003 77 115 0.0 2.0 0.00 0.01 0.00 52 1008.0
20260510005222 78 113 0.0 2.0 0.00 0.01 0.00 51 1007.9
20260510004217 79 111 0.0 7.0 0.00 0.01 0.00 49 1007.8
20260510003004 80 0 0.0 0.0 0.00 0.02 0.00 47 1007.7
20260510002219 80 139 0.0 2.0 0.00 0.04 0.00 44 1007.7
20260510001220 81 118 0.0 3.0 0.00 0.07 0.00 42 1007.7
20260510000221 82 80 2.0 7.0 0.00 0.08 0.00 41 1007.8
20260509235003 83 71 1.0 10.0 0.00 0.19 0.00 38 1007.8
20260509234003 83 87 2.0 8.0 0.00 0.20 0.00 36 1007.9
20260509233004 84 97 1.0 7.0 0.00 0.41 0.00 35 1008.0
20260509232003 84 98 2.0 7.0 0.00 0.51 0.00 34 1007.9
20260509231003 84 89 1.0 10.0 0.00 0.51 0.00 34 1008.0
20260509230003 84 77 2.0 6.0 0.00 0.51 0.00 39 1008.1
20260509225003 85 66 2.0 10.0 0.00 0.51 0.00 34 1008.2
20260509224004 85 74 1.0 6.0 0.00 0.51 0.00 34 1008.2
20260509223003 85 68 2.0 7.0 0.00 0.51 0.00 34 1008.2
20260509222004 86 82 1.0 5.0 0.00 0.51 0.00 34 1008.3
20260509221003 86 79 1.0 7.0 0.00 0.51 0.00 34 1008.3
20260509220004 86 75 1.0 7.0 0.00 0.51 0.00 34 1008.4
20260509215003 86 75 2.0 8.0 0.00 0.51 0.00 35 1008.6
20260509214003 86 76 1.0 5.0 0.00 0.51 0.00 35 1008.5
20260509213003 86 80 2.0 9.0 0.00 0.51 0.00 32 1008.5
20260509212003 86 94 1.0 5.0 0.00 0.51 0.00 34 1008.6
20260509211003 86 75 1.0 6.0 0.00 0.51 0.00 35 1008.8
20260509210003 86 73 0.0 5.0 0.00 0.51 0.00 34 1009.0
20260509205003 86 73 0.0 1.0 0.00 0.51 0.00 36 1009.1
20260509204220 86 63 0.0 2.0 0.00 0.51 0.00 36 1009.2
20260509203003 86 83 1.0 5.0 0.00 0.51 0.00 33 1009.2
20260509202003 86 98 1.0 5.0 0.00 0.51 0.00 34 1009.3
20260509201003 86 99 1.0 4.0 0.00 0.51 0.00 36 1009.4
20260509200003 87 94 1.0 4.0 0.00 0.51 0.00 33 1009.5
20260509195003 86 115 0.0 2.0 0.00 0.51 0.00 35 1009.6
20260509194220 86 64 0.0 4.0 0.00 0.51 0.00 39 1009.7
20260509193003 86 69 1.0 6.0 0.00 0.51 0.00 33 1009.8
20260509192003 85 0 0.0 0.0 0.00 0.51 0.00 36 1009.8
20260509191003 86 0 0.0 0.0 0.00 0.51 0.00 34 1009.8
20260509190003 85 0 0.0 0.0 0.00 0.51 0.00 32 1009.8
20260509185003 85 0 0.0 0.0 0.00 0.51 0.00 32 1009.9
20260509184221 85 0 0.0 0.0 0.00 0.51 0.00 31 1009.9
20260509183003 84 117 0.0 1.0 0.00 0.51 0.00 36 1010.2
20260509182003 84 0 0.0 0.0 0.00 0.51 0.00 41 1010.3
20260509181003 84 0 0.0 0.0 0.00 0.51 0.00 45 1010.4
20260509180003 84 0 0.0 0.0 0.00 0.51 0.00 48 1010.5
20260509175003 83 0 0.0 0.0 0.00 0.51 0.00 45 1010.7
20260509174003 82 0 0.0 0.0 0.00 0.51 0.00 47 1010.8
20260509173003 82 0 0.0 0.0 0.00 0.51 0.00 52 1010.8
20260509172003 81 0 0.0 0.0 0.00 0.51 0.00 54 1010.9
20260509171003 80 0 0.0 0.0 0.00 0.51 0.00 55 1010.9
20260509170003 80 0 0.0 0.0 0.00 0.51 0.00 63 1011.0
20260509165221 79 0 0.0 0.0 0.00 0.51 0.00 63 1011.0
20260509164003 79 0 0.0 0.0 0.00 0.51 0.00 66 1011.2
20260509163218 78 0 0.0 0.0 0.00 0.51 0.00 66 1011.2
20260509162003 78 0 0.0 0.0 0.00 0.51 0.00 70 1011.2
20260509161220 77 0 0.0 0.0 0.00 0.51 0.00 71 1011.1
20260509160004 76 0 0.0 0.0 0.00 0.51 0.00 71 1011.0
20260509155217 75 0 0.0 0.0 0.00 0.51 0.00 73 1010.9
20260509154218 75 0 0.0 0.0 0.00 0.51 0.00 73 1010.8
20260509153003 74 0 0.0 0.0 0.00 0.51 0.00 76 1010.9
20260509152003 73 0 0.0 0.0 0.00 0.51 0.00 79 1011.0
20260509151003 72 0 0.0 0.0 0.00 0.51 0.00 85 1011.0
20260509150217 70 0 0.0 0.0 0.00 0.51 0.00 89 1011.0
20260509145003 69 0 0.0 0.0 0.00 0.51 0.00 93 1011.2
20260509144219 68 0 0.0 0.0 0.00 0.51 0.00 95 1011.1
20260509143003 66 0 0.0 0.0 0.00 0.51 0.00 96 1011.1
20260509142003 66 0 0.0 0.0 0.00 0.51 0.00 96 1011.0
20260509141003 65 0 0.0 0.0 0.00 0.51 0.00 96 1011.0
20260509140003 64 0 0.0 0.0 0.00 0.51 0.00 96 1010.9
20260509135218 63 0 0.0 0.0 0.00 0.51 0.00 96 1010.8
20260509134003 62 0 0.0 0.0 0.00 0.51 0.00 96 1010.8
20260509133220 62 0 0.0 0.0 0.00 0.51 0.00 96 1010.7
20260509132003 60 0 0.0 0.0 0.00 0.51 0.00 96 1010.4
20260509131003 59 0 0.0 0.0 0.00 0.51 0.00 96 1010.4
20260509130003 58 0 0.0 0.0 0.00 0.51 0.00 96 1010.4
20260509125003 58 0 0.0 0.0 0.00 0.51 0.00 96 1010.3
20260509124003 57 0 0.0 0.0 0.00 0.51 0.00 96 1010.2
20260509123003 56 0 0.0 0.0 0.00 0.51 0.00 95 1010.2
20260509122003 55 0 0.0 0.0 0.00 0.51 0.00 95 1010.1
20260509121218 55 0 0.0 0.0 0.00 0.51 0.00 95 1010.0
20260509120003 55 0 0.0 0.0 0.00 0.51 0.00 95 1009.9
20260509115219 55 0 0.0 0.0 0.00 0.51 0.00 95 1009.9
20260509114003 55 0 0.0 0.0 0.00 0.51 0.00 95 1009.8
20260509113003 55 0 0.0 0.0 0.00 0.51 0.00 95 1009.7
20260509112003 55 0 0.0 0.0 0.00 0.51 0.00 95 1009.6
20260509111003 55 0 0.0 0.0 0.00 0.51 0.00 95 1009.6
20260509110003 55 0 0.0 0.0 0.00 0.51 0.00 95 1009.6